Location: New Greens
(51.7702°N, 0.3379°W)
Time: 02:42:32
(UTC+00:00)

ISS - Visible Passes

Search period start: 01 October 2020 00:00
Search period end: 11 October 2020 00:00
Orbit: 419 x 421 km, 51.6° (Epoch: 01 October)

Date Brightness Start Highest point End Pass type
(mag) Time Alt. Az. Time Alt. Az. Time Alt. Az.
01 Oct -3.2 19:03:50 10° W 19:07:08 51° SSW 19:08:40 27° SE visible
01 Oct -0.6 20:41:28 10° WSW 20:41:39 11° WSW 20:41:39 11° WSW visible
02 Oct -3.5 18:16:31 10° W 18:19:52 64° SSW 18:23:13 10° ESE visible
02 Oct -1.7 19:53:42 10° W 19:56:14 20° SW 19:56:14 20° SW visible
03 Oct -2.1 19:06:10 10° W 19:09:08 28° SSW 19:10:53 18° SSE visible
04 Oct -2.5 18:18:45 10° W 18:21:55 38° SSW 18:25:04 10° SE visible
05 Oct -1.0 19:09:03 10° WSW 19:10:55 14° SW 19:12:47 10° S visible
06 Oct -1.4 18:21:13 10° W 18:23:46 20° SW 18:26:19 10° SSE visible
